• In Deutschland
  • Länderverzeichnis
  • Für 7 Tage
  • Wassertemperatur
  • Satellitenkarten
  • Wetterkarte
  • Widgets
  • user-avatar
    Anmelden

    Stündliche Wetter Florencia

    Heute, 18 August, Freitag

    Zeit Temperatur Niederschläge Wind Luftdruck Luftfeuchtigkeit
    00:00 +25°C° 0,2 mm 1 m/S 733 mmHg 81%
    01:00 +25°C° 0,2 mm 1 m/S 733 mmHg 81%
    02:00 +25°C° 0,2 mm 1 m/S 732 mmHg 81%
    03:00 +25°C° 0,2 mm 1 m/S 732 mmHg 82%
    04:00 +25°C° 0,2 mm 1 m/S 732 mmHg 82%
    05:00 +25°C° 0,3 mm 1 m/S 732 mmHg 81%
    06:00 +25°C° 0,3 mm 1 m/S 733 mmHg 80%
    07:00 +26°C° 0,3 mm 1 m/S 733 mmHg 79%
    08:00 +28°C° 0,2 mm 1 m/S 733 mmHg 71%
    09:00 +29°C° 0,2 mm 0 m/S 734 mmHg 64%
    10:00 +32°C° 0,2 mm 0 m/S 734 mmHg 56%
    11:00 +34°C° 0,3 mm 1 m/S 733 mmHg 54%
    12:00 +35°C° 0,3 mm 1 m/S 732 mmHg 53%
    13:00 +36°C° 0,3 mm 1 m/S 731 mmHg 52%
    14:00 +35°C° 0,5 mm 1 m/S 731 mmHg 54%
    15:00 +34°C° 0,5 mm 1 m/S 730 mmHg 56%
    16:00 +34°C° 0,5 mm 1 m/S 729 mmHg 59%
    17:00 +32°C° 0,6 mm 1 m/S 730 mmHg 65%
    18:00 +30°C° 0,6 mm 1 m/S 730 mmHg 71%
    19:00 +28°C° 0,6 mm 1 m/S 731 mmHg 78%
    20:00 +27°C° 1,4 mm 1 m/S 731 mmHg 82%
    21:00 +26°C° 1,4 mm 1 m/S 732 mmHg 86%
    22:00 +26°C° 1,4 mm 1 m/S 732 mmHg 90%
    23:00 +26°C° 1,1 mm 1 m/S 732 mmHg 91%

    Morgen, 19 August, Samstag

    Zeit Temperatur Niederschläge Wind Luftdruck Luftfeuchtigkeit
    00:00 +25°C° 1,1 mm 1 m/S 732 mmHg 91%
    01:00 +25°C° 1,1 mm 1 m/S 732 mmHg 91%
    02:00 +25°C° 0,8 mm 1 m/S 732 mmHg 91%
    03:00 +25°C° 0,8 mm 1 m/S 732 mmHg 90%
    04:00 +25°C° 0,8 mm 1 m/S 731 mmHg 90%
    05:00 +25°C° 0,7 mm 1 m/S 732 mmHg 89%
    06:00 +23°C° 0,7 mm 0 m/S 732 mmHg 89%
    07:00 +23°C° 0,7 mm 0 m/S 733 mmHg 88%
    08:00 +25°C° 0,7 mm 0 m/S 733 mmHg 83%
    09:00 +26°C° 0,7 mm 0 m/S 733 mmHg 78%
    10:00 +28°C° 0,7 mm 0 m/S 734 mmHg 73%
    11:00 +29°C° 0,4 mm 0 m/S 733 mmHg 66%
    12:00 +33°C° 0,4 mm 1 m/S 732 mmHg 59%
    13:00 +34°C° 0,4 mm 1 m/S 731 mmHg 52%
    14:00 +33°C° 0,5 mm 1 m/S 731 mmHg 57%
    15:00 +33°C° 0,5 mm 1 m/S 730 mmHg 62%
    16:00 +32°C° 0,5 mm 2 m/S 730 mmHg 66%
    17:00 +30°C° 1,3 mm 1 m/S 730 mmHg 75%
    18:00 +28°C° 1,3 mm 1 m/S 731 mmHg 84%
    19:00 +26°C° 1,3 mm 1 m/S 731 mmHg 93%
    20:00 +26°C° 0,9 mm 1 m/S 732 mmHg 93%
    21:00 +25°C° 0,9 mm 1 m/S 732 mmHg 92%
    22:00 +25°C° 0,9 mm 1 m/S 733 mmHg 92%
    23:00 +25°C° 0,2 mm 1 m/S 732 mmHg 90%

    übermorgen, 20 August, Sonntag

    Zeit Temperatur Niederschläge Wind Luftdruck Luftfeuchtigkeit
    00:00 +25°C° 0,2 mm 1 m/S 732 mmHg 89%
    01:00 +25°C° 0,2 mm 1 m/S 732 mmHg 87%
    02:00 +25°C° 0,2 mm 1 m/S 732 mmHg 86%
    03:00 +25°C° 0,2 mm 1 m/S 731 mmHg 84%
    04:00 +25°C° 0,2 mm 1 m/S 731 mmHg 82%
    05:00 +25°C° 0,2 mm 1 m/S 732 mmHg 81%
    06:00 +25°C° 0,2 mm 1 m/S 732 mmHg 79%
    07:00 +26°C° 0,2 mm 1 m/S 732 mmHg 77%
    08:00 +28°C° 0,1 mm 1 m/S 733 mmHg 68%
    09:00 +31°C° 0,1 mm 1 m/S 733 mmHg 58%
    10:00 +32°C° 0,1 mm 0 m/S 734 mmHg 49%
    11:00 +35°C° 0,3 mm 1 m/S 733 mmHg 49%
    12:00 +35°C° 0,3 mm 1 m/S 732 mmHg 49%
    13:00 +36°C° 0,3 mm 1 m/S 731 mmHg 48%
    14:00 +35°C° 0,3 mm 1 m/S 731 mmHg 49%
    15:00 +35°C° 0,3 mm 1 m/S 730 mmHg 50%
    16:00 +34°C° 0,3 mm 1 m/S 730 mmHg 51%
    17:00 +32°C° 0,2 mm 1 m/S 730 mmHg 58%
    18:00 +29°C° 0,2 mm 1 m/S 731 mmHg 65%
    19:00 +27°C° 0,2 mm 1 m/S 732 mmHg 72%
    20:00 +27°C° 0,3 mm 1 m/S 732 mmHg 73%
    21:00 +26°C° 0,3 mm 1 m/S 733 mmHg 74%
    22:00 +25°C° 0,3 mm 1 m/S 733 mmHg 75%
    23:00 +25°C° 0,2 mm 1 m/S 733 mmHg 76%

    21 August, Montag

    Zeit Temperatur Niederschläge Wind Luftdruck Luftfeuchtigkeit
    00:00 +25°C° 0,2 mm 1 m/S 733 mmHg 77%
    01:00 +24°C° 0,2 mm 1 m/S 733 mmHg 78%
    02:00 +24°C° 0,1 mm 1 m/S 733 mmHg 78%
    03:00 +24°C° 0,1 mm 1 m/S 733 mmHg 77%
    04:00 +24°C° 0,1 mm 1 m/S 733 mmHg 76%
    05:00 +24°C° 0 mm 1 m/S 733 mmHg 74%
    06:00 +25°C° 0 mm 1 m/S 734 mmHg 72%
    07:00 +25°C° 0 mm 1 m/S 734 mmHg 70%
    08:00 +28°C° 0 mm 1 m/S 734 mmHg 62%
    09:00 +30°C° 0 mm 1 m/S 735 mmHg 53%
    10:00 +33°C° 0 mm 1 m/S 735 mmHg 45%
    11:00 +34°C° 0 mm 1 m/S 734 mmHg 42%
    12:00 +35°C° 0 mm 1 m/S 733 mmHg 39%
    13:00 +37°C° 0 mm 1 m/S 733 mmHg 35%
    14:00 +35°C° 0 mm 1 m/S 732 mmHg 39%
    15:00 +34°C° 0 mm 1 m/S 732 mmHg 43%
    16:00 +33°C° 0 mm 1 m/S 731 mmHg 47%
    17:00 +31°C° 0,4 mm 1 m/S 732 mmHg 58%
    18:00 +28°C° 0,4 mm 1 m/S 733 mmHg 69%
    19:00 +26°C° 0,4 mm 1 m/S 733 mmHg 79%
    20:00 +26°C° 1,3 mm 1 m/S 734 mmHg 83%
    21:00 +25°C° 1,3 mm 1 m/S 735 mmHg 88%
    22:00 +25°C° 1,3 mm 1 m/S 735 mmHg 92%
    23:00 +24°C° 1,1 mm 1 m/S 735 mmHg 92%

    22 August, Dienstag

    Zeit Temperatur Niederschläge Wind Luftdruck Luftfeuchtigkeit
    00:00 +24°C° 1,1 mm 1 m/S 735 mmHg 92%
    01:00 +24°C° 1,1 mm 1 m/S 735 mmHg 92%
    02:00 +24°C° 0,8 mm 1 m/S 734 mmHg 92%
    03:00 +24°C° 0,8 mm 1 m/S 734 mmHg 92%
    04:00 +23°C° 0,8 mm 1 m/S 734 mmHg 92%
    05:00 +24°C° 0,6 mm 1 m/S 734 mmHg 92%
    06:00 +24°C° 0,6 mm 1 m/S 735 mmHg 91%
    07:00 +22°C° 0,6 mm 0 m/S 735 mmHg 91%
    08:00 +22°C° 1,1 mm 0 m/S 736 mmHg 90%
    09:00 +23°C° 1,1 mm 0 m/S 736 mmHg 88%
    10:00 +23°C° 1,1 mm 0 m/S 736 mmHg 87%
    11:00 +25°C° 0,6 mm 0 m/S 736 mmHg 81%
    12:00 +28°C° 0,6 mm 1 m/S 735 mmHg 75%
    13:00 +30°C° 0,6 mm 1 m/S 734 mmHg 69%
    14:00 +29°C° 0,5 mm 1 m/S 734 mmHg 71%
    15:00 +28°C° 0,5 mm 1 m/S 733 mmHg 74%
    16:00 +28°C° 0,5 mm 1 m/S 732 mmHg 77%
    17:00 +27°C° 0,6 mm 1 m/S 733 mmHg 80%
    18:00 +26°C° 0,6 mm 1 m/S 733 mmHg 83%
    19:00 +25°C° 0,6 mm 1 m/S 734 mmHg 86%
    20:00 +25°C° 0,8 mm 1 m/S 734 mmHg 86%
    21:00 +25°C° 0,8 mm 1 m/S 735 mmHg 86%
    22:00 +24°C° 0,8 mm 1 m/S 735 mmHg 86%
    23:00 +24°C° 0,6 mm 1 m/S 735 mmHg 86%

    23 August, Mittwoch

    Zeit Temperatur Niederschläge Wind Luftdruck Luftfeuchtigkeit
    00:00 +24°C° 0,6 mm 1 m/S 734 mmHg 87%
    01:00 +23°C° 0,6 mm 1 m/S 734 mmHg 87%
    02:00 +23°C° 0,2 mm 1 m/S 734 mmHg 87%
    03:00 +23°C° 0,2 mm 1 m/S 733 mmHg 86%
    04:00 +23°C° 0,2 mm 1 m/S 733 mmHg 86%
    05:00 +23°C° 0,1 mm 1 m/S 733 mmHg 85%
    06:00 +24°C° 0,1 mm 1 m/S 734 mmHg 83%
    07:00 +24°C° 0,1 mm 1 m/S 734 mmHg 81%
    08:00 +27°C° 0 mm 1 m/S 734 mmHg 70%
    09:00 +30°C° 0 mm 1 m/S 734 mmHg 59%
    10:00 +34°C° 0 mm 1 m/S 734 mmHg 47%
    11:00 +34°C° 0,1 mm 1 m/S 733 mmHg 46%
    12:00 +35°C° 0,1 mm 1 m/S 733 mmHg 45%
    13:00 +36°C° 0,1 mm 1 m/S 732 mmHg 43%
    14:00 +35°C° 0,2 mm 1 m/S 731 mmHg 44%
    15:00 +35°C° 0,2 mm 1 m/S 731 mmHg 45%
    16:00 +34°C° 0,2 mm 1 m/S 730 mmHg 46%
    17:00 +32°C° 0 mm 1 m/S 730 mmHg 53%
    18:00 +30°C° 0 mm 1 m/S 731 mmHg 61%
    19:00 +27°C° 0 mm 1 m/S 731 mmHg 68%
    20:00 +27°C° 0 mm 1 m/S 732 mmHg 69%
    21:00 +26°C° 0 mm 1 m/S 732 mmHg 71%
    22:00 +26°C° 0 mm 1 m/S 733 mmHg 72%
    23:00 +25°C° 0,2 mm 1 m/S 733 mmHg 72%
    Mehr zeigen